This demonstration page uses our WeatherBlox Daily Observations layout. Learn more.

41.55636, -103.73856

Hourly Observations for May 3, 2015

Temp ( °F °C ) Dew Point ( °F °C ) Humidity (%) Winds ( mph kmh ) Pressure ( in mb ) Visibility ( mi km ) Precip ( " mm )
12:53 am 00:53 Clear 57 14 43 6 59 59 WSW 8 13 29.74 1007 10 16.09344 0 0
1:53 am 01:53 Clear 55 13 41 5 59 59 NNW 3 6 29.71 1006 10 16.09344 0 0
2:53 am 02:53 Clear 55 13 41 5 59 59 NNW 5 7 29.71 1006 10 16.09344 0 0
3:53 am 03:53 Clear 54 12 41 5 63 63 Calm 29.71 1006 10 16.09344 0 0
4:53 am 04:53 Clear 50 10 41 5 71 71 NNW 9 15 29.8 1009 10 16.09344 0 0
5:53 am 05:53 Sunny 52 11 41 5 67 67 N 7 11 29.77 1008 10 16.09344 0 0
6:53 am 06:53 Sunny 50 10 43 6 76 76 NNW 6 9 29.83 1010 10 16.09344 0 0
7:53 am 07:53 Sunny 59 15 43 6 55 55 NW 9 15 29.77 1008 10 16.09344 0 0
8:53 am 08:53 Sunny 66 19 39 4 37 37 NNW 14 22 29.77 1008 10 16.09344 0 0
9:53 am 09:53 Sunny 64 18 36 2 34 34 N 15 24 29.77 1008 10 16.09344 0 0
10:53 am 10:53 Sunny 66 19 36 2 32 32 NNE 14 22 29.8 1009 10 16.09344 0 0
11:53 am 11:53 Sunny 70 21 37 3 31 31 NE 12 19 29.77 1008 10 16.09344 0 0
12:53 pm 12:53 Sunny 72 22 39 4 31 31 ENE 13 20 29.74 1007 10 16.09344 0 0
1:53 pm 13:53 Sunny 72 22 39 4 31 31 NE 14 22 29.74 1007 10 16.09344 0 0
2:53 pm 14:53 Sunny 72 22 39 4 31 31 NE 16 26 29.71 1006 10 16.09344 0 0
3:53 pm 15:53 Sunny 70 21 37 3 31 31 NE 14 22 29.74 1007 10 16.09344 0 0
4:53 pm 16:53 Mostly Sunny 68 20 37 3 33 33 NE 10 17 29.77 1008 10 16.09344 0 0
5:53 pm 17:53 Sunny 68 20 37 3 33 33 E 15 24 29.77 1008 10 16.09344 0 0
6:53 pm 18:53 Sunny 66 19 37 3 35 35 E 10 17 29.83 1010 10 16.09344 0 0
7:53 pm 19:53 Sunny 63 17 39 4 42 42 ENE 12 19 29.85 1011 10 16.09344 0 0
8:53 pm 20:53 Clear 59 15 41 5 51 51 NE 12 19 29.91 1013 10 16.09344 0 0
9:53 pm 21:53 Mostly Clear 55 13 41 5 59 59 ENE 9 15 29.97 1015 10 16.09344 0 0
10:53 pm 22:53 Clear 54 12 39 4 58 58 E 8 13 30 1016 10 16.09344 0 0
11:53 pm 23:53 Clear 54 12 39 4 58 58 ENE 5 7 30 1016 10 16.09344 0 0

Powered by AerisWeather